| time (UTC) | temp F | wind direction | speed MPH | gust MPH | rain 1hr in | rain 24hr in | rain mn in | humidity % | barometer mb |
| 20260510090015 | 65 | 138 | 10.0 | 24.0 | 0.00 | 0.00 | 0.00 | 56 | 1013.4 |
| 20260510084512 | 65 | 165 | 12.0 | 23.0 | 0.00 | 0.00 | 0.00 | 56 | 1013.6 |
| 20260510083008 | 63 | 134 | 5.0 | 19.0 | 0.00 | 0.00 | 0.00 | 58 | 1013.7 |
| 20260510081513 | 62 | 156 | 1.0 | 16.0 | 0.00 | 0.00 | 0.00 | 60 | 1014.0 |
| 20260510080103 | 61 | 193 | 5.0 | 17.0 | 0.00 | 0.00 | 0.00 | 61 | 1014.1 |
| 20260510074557 | 60 | 146 | 4.0 | 15.0 | 0.00 | 0.00 | 0.00 | 62 | 1014.3 |
| 20260510073052 | 59 | 133 | 1.0 | 11.0 | 0.00 | 0.00 | 0.00 | 64 | 1014.4 |
| 20260510071548 | 58 | 131 | 3.0 | 8.0 | 0.00 | 0.00 | 0.00 | 65 | 1014.6 |
| 20260510070048 | 57 | 130 | 4.0 | 15.0 | 0.00 | 0.00 | 0.00 | 66 | 1014.7 |
| 20260510064557 | 56 | 92 | 0.0 | 0.0 | 0.00 | 0.00 | 0.00 | 68 | 1015.1 |
| 20260510063043 | 56 | 92 | 0.0 | 0.0 | 0.00 | 0.00 | 0.00 | 69 | 1015.3 |
| 20260510061543 | 55 | 92 | 0.0 | 0.0 | 0.00 | 0.00 | 0.00 | 71 | 1015.2 |
| 20260510060035 | 54 | 92 | 0.0 | 0.0 | 0.00 | 0.00 | 0.00 | 74 | 1015.3 |
| 20260510054522 | 53 | 92 | 0.0 | 0.0 | 0.00 | 0.00 | 0.00 | 76 | 1015.3 |
| 20260510053018 | 52 | 92 | 0.0 | 0.0 | 0.00 | 0.00 | 0.00 | 78 | 1015.4 |
| 20260510051514 | 50 | 92 | 0.0 | 0.0 | 0.00 | 0.00 | 0.00 | 81 | 1015.4 |
| 20260510050009 | 49 | 92 | 0.0 | 0.0 | 0.00 | 0.00 | 0.00 | 82 | 1015.4 |
| 20260510044508 | 48 | 92 | 0.0 | 0.0 | 0.00 | 0.00 | 0.00 | 83 | 1015.5 |
| 20260510043002 | 48 | 92 | 0.0 | 0.0 | 0.00 | 0.00 | 0.00 | 84 | 1015.5 |
| 20260510041607 | 47 | 92 | 0.0 | 0.0 | 0.00 | 0.00 | 0.00 | 83 | 1015.7 |
| 20260510040055 | 47 | 92 | 0.0 | 0.0 | 0.00 | 0.00 | 0.00 | 83 | 1015.7 |
| 20260510034558 | 47 | 92 | 0.0 | 0.0 | 0.00 | 0.00 | 0.00 | 82 | 1015.7 |
| 20260510033050 | 48 | 92 | 0.0 | 0.0 | 0.00 | 0.00 | 0.00 | 82 | 1015.7 |
| 20260510031556 | 48 | 92 | 0.0 | 0.0 | 0.00 | 0.00 | 0.00 | 81 | 1015.6 |
| 20260510030055 | 48 | 92 | 0.0 | 0.0 | 0.00 | 0.00 | 0.00 | 81 | 1015.5 |
| 20260510024551 | 48 | 92 | 0.0 | 0.0 | 0.00 | 0.00 | 0.00 | 80 | 1015.6 |
| 20260510023044 | 48 | 92 | 0.0 | 0.0 | 0.00 | 0.00 | 0.00 | 80 | 1015.6 |
| 20260510021542 | 49 | 92 | 0.0 | 0.0 | 0.00 | 0.00 | 0.00 | 79 | 1015.8 |
| 20260510020039 | 49 | 92 | 0.0 | 0.0 | 0.00 | 0.00 | 0.00 | 78 | 1016.1 |
| 20260510014540 | 49 | 92 | 0.0 | 0.0 | 0.00 | 0.00 | 0.00 | 77 | 1015.9 |
| 20260510013042 | 49 | 92 | 0.0 | 0.0 | 0.00 | 0.00 | 0.00 | 77 | 1015.8 |
| 20260510011536 | 50 | 92 | 0.0 | 4.0 | 0.00 | 0.00 | 0.00 | 75 | 1015.8 |
| 20260510010032 | 51 | 92 | 0.0 | 0.0 | 0.00 | 0.00 | 0.00 | 75 | 1015.8 |
| 20260510004531 | 52 | 92 | 0.0 | 0.0 | 0.00 | 0.00 | 0.00 | 74 | 1015.8 |
| 20260510003043 | 52 | 92 | 0.0 | 0.0 | 0.00 | 0.00 | 0.00 | 71 | 1015.9 |
| 20260510001526 | 52 | 92 | 0.0 | 0.0 | 0.00 | 0.00 | 0.00 | 70 | 1015.9 |
| 20260510000026 | 53 | 92 | 0.0 | 0.0 | 0.00 | 0.00 | 0.00 | 70 | 1016.0 |
| 20260509234534 | 53 | 92 | 0.0 | 0.0 | 0.00 | 0.00 | 0.00 | 69 | 1016.3 |
| 20260509233033 | 53 | 92 | 1.0 | 8.0 | 0.00 | 0.00 | 0.00 | 69 | 1016.6 |
| 20260509231516 | 53 | 92 | 0.0 | 0.0 | 0.00 | 0.00 | 0.00 | 68 | 1016.8 |
| 20260509230015 | 54 | 92 | 0.0 | 0.0 | 0.00 | 0.00 | 0.00 | 68 | 1017.0 |
| 20260509224515 | 54 | 92 | 0.0 | 0.0 | 0.00 | 0.00 | 0.00 | 68 | 1017.2 |
| 20260509223011 | 54 | 92 | 0.0 | 0.0 | 0.00 | 0.00 | 0.00 | 67 | 1017.3 |
| 20260509221510 | 54 | 92 | 0.0 | 0.0 | 0.00 | 0.00 | 0.00 | 67 | 1017.2 |
| 20260509220016 | 54 | 92 | 0.0 | 0.0 | 0.00 | 0.00 | 0.00 | 68 | 1017.3 |
| 20260509214508 | 54 | 92 | 0.0 | 0.0 | 0.00 | 0.00 | 0.00 | 67 | 1017.2 |
| 20260509213007 | 54 | 92 | 0.0 | 0.0 | 0.00 | 0.00 | 0.00 | 67 | 1017.1 |
| 20260509211507 | 55 | 92 | 1.0 | 6.0 | 0.00 | 0.00 | 0.00 | 67 | 1017.1 |
| 20260509210006 | 55 | 92 | 5.0 | 10.0 | 0.00 | 0.00 | 0.00 | 66 | 1017.1 |
| 20260509204505 | 56 | 92 | 6.0 | 15.0 | 0.00 | 0.00 | 0.00 | 65 | 1017.1 |
| 20260509203004 | 56 | 99 | 7.0 | 16.0 | 0.00 | 0.00 | 0.00 | 64 | 1017.0 |
| 20260509201505 | 57 | 95 | 7.0 | 20.0 | 0.00 | 0.00 | 0.00 | 64 | 1017.1 |
| 20260509200004 | 57 | 91 | 10.0 | 15.0 | 0.00 | 0.00 | 0.00 | 64 | 1017.0 |
| 20260509194504 | 58 | 93 | 7.0 | 14.0 | 0.00 | 0.00 | 0.00 | 63 | 1017.0 |
| 20260509193002 | 59 | 100 | 6.0 | 13.0 | 0.00 | 0.00 | 0.00 | 63 | 1016.8 |
| 20260509191501 | 60 | 100 | 5.0 | 10.0 | 0.00 | 0.00 | 0.00 | 62 | 1016.7 |
| 20260509190001 | 61 | 100 | 8.0 | 17.0 | 0.00 | 0.00 | 0.00 | 60 | 1016.6 |
| 20260509184505 | 62 | 104 | 0.0 | 6.0 | 0.00 | 0.00 | 0.00 | 59 | 1016.3 |
| 20260509183101 | 62 | 104 | 2.0 | 7.0 | 0.00 | 0.00 | 0.00 | 58 | 1016.1 |
| 20260509181608 | 64 | 104 | 3.0 | 10.0 | 0.00 | 0.00 | 0.00 | 56 | 1016.0 |
| 20260509180105 | 66 | 103 | 0.0 | 0.0 | 0.00 | 0.00 | 0.00 | 59 | 1015.9 |
| 20260509174559 | 66 | 103 | 0.0 | 0.0 | 0.00 | 0.00 | 0.00 | 53 | 1015.7 |
| 20260509173102 | 67 | 103 | 0.0 | 8.0 | 0.00 | 0.00 | 0.00 | 52 | 1015.6 |
| 20260509171557 | 67 | 103 | 0.0 | 6.0 | 0.00 | 0.00 | 0.00 | 50 | 1015.6 |
| 20260509170104 | 67 | 102 | 1.0 | 10.0 | 0.00 | 0.00 | 0.00 | 50 | 1015.4 |
| 20260509164557 | 68 | 110 | 1.0 | 8.0 | 0.00 | 0.00 | 0.00 | 50 | 1015.5 |
| 20260509163104 | 68 | 113 | 3.0 | 11.0 | 0.00 | 0.00 | 0.00 | 50 | 1015.4 |
| 20260509161558 | 68 | 94 | 4.0 | 10.0 | 0.00 | 0.00 | 0.00 | 49 | 1015.6 |
| 20260509160053 | 68 | 101 | 1.0 | 11.0 | 0.00 | 0.00 | 0.00 | 50 | 1015.7 |
| 20260509154605 | 67 | 88 | 0.0 | 13.0 | 0.00 | 0.00 | 0.00 | 50 | 1015.7 |
| 20260509153051 | 67 | 98 | 1.0 | 7.0 | 0.00 | 0.00 | 0.00 | 52 | 1015.8 |
| 20260509151553 | 67 | 97 | 0.0 | 8.0 | 0.00 | 0.00 | 0.00 | 51 | 1015.8 |
| 20260509150106 | 67 | 96 | 0.0 | 6.0 | 0.00 | 0.00 | 0.00 | 50 | 1015.8 |
| 20260509144558 | 67 | 96 | 0.0 | 0.0 | 0.00 | 0.00 | 0.00 | 51 | 1016.0 |
| 20260509143054 | 67 | 96 | 2.0 | 10.0 | 0.00 | 0.00 | 0.00 | 51 | 1015.8 |
| 20260509141549 | 67 | 96 | 0.0 | 8.0 | 0.00 | 0.00 | 0.00 | 51 | 1016.0 |
| 20260509140050 | 67 | 74 | 7.0 | 11.0 | 0.00 | 0.00 | 0.00 | 51 | 1016.0 |
| 20260509134546 | 68 | 27 | 1.0 | 16.0 | 0.00 | 0.00 | 0.00 | 50 | 1016.1 |
| 20260509133050 | 67 | 63 | 0.0 | 0.0 | 0.00 | 0.00 | 0.00 | 51 | 1016.2 |
| 20260509131544 | 67 | 82 | 3.0 | 10.0 | 0.00 | 0.00 | 0.00 | 52 | 1016.3 |
| 20260509130049 | 67 | 56 | 2.0 | 14.0 | 0.00 | 0.00 | 0.00 | 52 | 1016.3 |
| 20260509124550 | 67 | 69 | 2.0 | 13.0 | 0.00 | 0.00 | 0.00 | 52 | 1016.3 |
| 20260509123043 | 68 | 112 | 5.0 | 14.0 | 0.00 | 0.00 | 0.00 | 51 | 1016.2 |
| 20260509121555 | 68 | 81 | 5.0 | 28.0 | 0.00 | 0.00 | 0.00 | 50 | 1016.3 |
| 20260509120042 | 68 | 59 | 10.0 | 23.0 | 0.00 | 0.00 | 0.00 | 50 | 1016.4 |
| 20260509114552 | 68 | 62 | 11.0 | 21.0 | 0.00 | 0.00 | 0.00 | 51 | 1016.4 |
| 20260509113036 | 67 | 53 | 0.0 | 13.0 | 0.00 | 0.00 | 0.00 | 51 | 1016.5 |
| 20260509111535 | 68 | 69 | 7.0 | 14.0 | 0.00 | 0.00 | 0.00 | 51 | 1016.5 |
| 20260509110032 | 67 | 53 | 0.0 | 12.0 | 0.00 | 0.00 | 0.00 | 53 | 1016.7 |
| 20260509104530 | 66 | 81 | 11.0 | 20.0 | 0.00 | 0.00 | 0.00 | 54 | 1016.9 |
| 20260509103028 | 66 | 90 | 4.0 | 12.0 | 0.00 | 0.00 | 0.00 | 54 | 1017.0 |
| 20260509101526 | 65 | 127 | 4.0 | 14.0 | 0.00 | 0.00 | 0.00 | 56 | 1017.1 |
| 20260509100024 | 65 | 88 | 0.0 | 13.0 | 0.00 | 0.00 | 0.00 | 55 | 1017.3 |
| 20260509094524 | 64 | 100 | 5.0 | 18.0 | 0.00 | 0.00 | 0.00 | 55 | 1017.3 |
| 20260509093017 | 63 | 66 | 1.0 | 15.0 | 0.00 | 0.00 | 0.00 | 57 | 1017.3 |
| 20260509091514 | 63 | 71 | 5.0 | 20.0 | 0.00 | 0.00 | 0.00 | 59 | 1017.4 |